FlightSource - Aviation Photo Database

World Wide Airport Lookup


Search by ICAO
Or
Search by City

FlightSource.ca - Aviation Photo Database - Langenlebarn Military Airport Information
Airport Identification
Name: Langenlebarn Military Airport
ICAO: LOXT
IATA:
Airport Location
City: Tulln
Region: 3
Country: Austria
Continent: Europe
Latitude: 48.3167
Longitude: 16.1167
Airport Information
Type: Small Airport
Elevation: 574 Feet ASL
Flight Status: LOXT
More Info: LOXT
Airport Weather    
Metar: LOXT 121920Z 26015KT 20KM FEW030SC BKN060SC 05/00 Q1016 NOSIG RMK BKN
TAF:


Advertisement